OPS 4682 DEB, 38373

Orbit data source: Space-Track

OPS 4682 DEB, 38373 is space debris in LEO originally from a launch on Sat, 03 Apr 1965 UTC launched from the Air Force Western Test Range (AFWTR). Debris objects in space refer to the collection of defunct objects orbiting the Earth. Examples of debris include non-operational satellites, rocket bodies, and fragments generated from explosions, collisions, or faulty payload assembly.

Loading next visibility...
Identifier
38373, 1965-027CA
Orbit
LEO
Country
Flag of USUS
Related business
Manufacturer
Unknown
Mission
Spacecraft
Bus & Motor
Unknown
Mass
Unknown
Launch date (UTC)
1965-04-03 (61 years ago)
Launch vehicle
Unknown
Launch site
Air Force Western Test Range (AFWTR)
Object type
Payload
Rocket body
Debris
Shape & HBR
Unknown shape, 0.1 m
Radar Cross Section
Medium (>0.1 m² and <1 m²)

Expand to show TLE details & history
Last TLE update: 1 week ago

TLE from 1 week ago
0 OPS 4682 DEB
1 38373U 65027CA  26254.36110437  .00000473  00000-0  15228-2 0  9992
2 38373  90.2784  32.6791 0029141 316.1382  43.7427 13.01088749628245
Epoch: 2026-09-11T08:39Z
TLE epoch observation values (Epoch: 2026-09-11T08:39:59.417Z)
Latitude
-0.00003°
Longitude
-87.70404°
Altitude
1,244.661 km
Speed
7.24 km/s
True Right ascension
02h 10m 42s
True Declination
0° 00' 00"
Sunlit
Object was in full shadow at epoch
Visualization orbit readout
Latitude
Unknown
Longitude
Unknown
Altitude
Unknown
Speed
Unknown
Apparent Right ascension
Unknown
Apparent Declination
Unknown
Sunlit
N/A
Visualization observer readout
Local Sidereal Time
10:57:55
Azimuth
Unknown
Elevation
Unknown
Doppler factor
Unknown
Orbital elements
Apogee altitude
1,277.193 km
Perigee altitude
1,232.706 km
Semi-major axis
7,633.086 km
Eccentricity
0.00291
Inclination
90.2784°
RAAN
32.6791°
Arg. of periapsis
316.1382°
True anomaly
43.9742°
Mean anomaly
43.7427°
Eccentric anomaly
43.85839°
Mean motion
3.25456 °/min
Orbital period
110.61 mins
BSTAR
0.0015228
Loading maneuver chart data...
Computing Atmospheric mass density...
Loading historical data...
Loading historical data...
Loading historical data...
Loading historical data...
Loading historical data...
Loading historical data...
Loading historical data...

Documentation

Showing up to 5 results
|